Hourly Data Report for November 12, 2019

All times are specified in Local Standard Time (LST). Add 1 hour to adjust for Daylight Saving Time where and when it is observed.

SATURNA ISLAND CS
BRITISH COLUMBIA
Current Station Operator: ECCC - MSC

48°47'02.067" N
123°02'41.082" W
24.40 m
1017101
71473
WEZ

Download Data

Hourly Data (November 2019)
Hourly Data Report for November 12, 2019
TIME Temp Definition
°C
Dew Point Definition
°C
Rel Hum Definition
%
Wind Dir Definition
10's deg

Wind Spd Definition
km/h
Visibility Definition
km
Stn Press Definition
kPa
Hmdx Definition


Wind Chill Definition


Weather Definition


00:00 8.4 7.3 93 29 4   101.74     LegendNANA
01:00 8.2 7.5 96 30 5   101.68     LegendNANA
02:00 8.2 7.7 97 33 8   101.54     LegendNANA
03:00 8.4 8.0 97 2 7   101.50     LegendNANA
04:00 8.3 7.9 98 31 3   101.48     LegendNANA
05:00 8.4 8.0 98 0 1   101.50     LegendNANA
06:00 8.1 7.7 98 5 5   101.50     LegendNANA
07:00 8.0 7.7 98 12 10   101.49     LegendNANA
08:00 8.1 7.6 97 15 7   101.53     LegendNANA
09:00 8.6 7.9 96 17 10   101.58     LegendNANA
10:00 8.9 8.4 97 21 18   101.60     LegendNANA
11:00 9.2 8.3 94 20 13   101.64     LegendNANA
12:00 9.0 8.0 93 16 9   101.63     LegendNANA
13:00 8.9 8.2 96 22 2   101.65     LegendNANA
14:00 9.1 8.3 95 11 1   101.64     LegendNANA
15:00 9.2 8.5 95 20 16   101.70     LegendNANA
16:00 9.0 8.2 95 5 5   101.72     LegendNANA
17:00 9.4 8.5 94 15 11   101.74     LegendNANA
18:00 9.5 8.5 94 16 9   101.74     LegendNANA
19:00 9.5 8.8 95 21 12   101.78     LegendNANA
20:00 9.5 8.9 96 22 17   101.76     LegendNANA
21:00 9.4 8.9 96 23 5   101.78     LegendNANA
22:00 9.6 9.1 97 20 7   101.84     LegendNANA
23:00 9.4 8.9 97 25 5   101.85     LegendNANA

Notes on Data Quality.

Legend

  • E = Estimated
  • M = Missing
  • NA = Not Available
Date modified: